Copper Mountain, CO

4:38 PM MST on December 17, 2017 (GMT -0700)
Copper Mountain

Weather History for KCCU - July, 2013

Change the Weather History Date:

Sunday, July 7, 2013

  Actual Average Record
Temperature  
Mean Temperature 59 °F -  
Max Temperature 68 °F - 71 °F (2014)
Min Temperature 50 °F - 35 °F (2008)
Degree Days  
Heating Degree Days 6    
Month to date heating degree days  
Cooling Degree Days 0    
Month to date cooling degree days  
Growing Degree Days 9 (Base 50)    
Moisture  
Dew Point 38 °F    
Average Humidity 51    
Maximum Humidity 72    
Minimum Humidity 26    
Precipitation  
Precipitation 0.12 in - 0.33 in (2011)
Sea Level Pressure  
Sea Level Pressure 30.61 in    
Wind  
Wind Speed 12 mph (WSW)    
Max Wind Speed 23 mph    
Max Gust Speed 30 mph    
Visibility 10 miles    
Events Rain , Thunderstorm    
T = Trace of Precipitation, MM = Missing Value Source: NWS Daily Summary

Daily Weather History Graph

Daily Weather History Graph

Search for Another Location

Airport or City:

Trip Planner

Search our weather history database for the weather conditions in past years. The results will help you decide how hot, cold, wet, or windy it might be!

Date:

Astronomy

Jul. 07, 2013 Rise Set
Actual Time 5:44 AM MDT 8:34 PM MDT
Civil Twilight 5:12 AM MDT 9:06 PM MDT
Nautical Twilight 4:32 AM MDT 9:46 PM MDT
Astronomical Twilight 3:46 AM MDT 10:32 PM MDT
Moon 5:22 AM MDT (7/7) 8:00 PM MDT (7/7)
Length of Visible Light 15h 53m
Length of Day
14h 49m
Waning Crescent, 0% of the Moon is Illuminated
Jul 7
Waning Crescent
Jul 8
New
Jul 15
First Quarter
Jul 22
Full
Jul 29
Last Quarter

Hourly Weather History & Observations

Time (MDT) Temp. Dew Point Humidity Pressure Visibility Wind Dir Wind Speed Gust Speed Precip Events Conditions
12:12 AM 53.6 °F 42.8 °F 67% 30.57 in 10.0 mi West 6.9 mph - N/A   Mostly Cloudy
12:32 AM 53.6 °F 42.8 °F 67% 30.57 in 10.0 mi South 11.5 mph - N/A   Mostly Cloudy
12:52 AM 53.6 °F 41.0 °F 62% 30.58 in 10.0 mi SSW 11.5 mph 16.1 mph N/A   Scattered Clouds
1:12 AM 53.6 °F 41.0 °F 62% 30.57 in 10.0 mi SSW 8.1 mph - N/A Thunderstorm Clear
1:32 AM 53.6 °F 41.0 °F 62% 30.58 in 10.0 mi SW 4.6 mph - N/A   Clear
1:52 AM 53.6 °F 42.8 °F 67% 30.57 in 10.0 mi South 10.4 mph 16.1 mph N/A   Mostly Cloudy
2:12 AM 51.8 °F 41.0 °F 67% 30.57 in 7.0 mi SSW 11.5 mph 21.9 mph 0.01 in Rain Light Rain
2:32 AM 53.6 °F 42.8 °F 67% 30.56 in 10.0 mi South 19.6 mph - 0.01 in   Overcast
2:52 AM 53.6 °F 42.8 °F 67% 30.56 in 10.0 mi South 17.3 mph - 0.01 in   Overcast
3:12 AM 53.6 °F 42.8 °F 67% 30.57 in 10.0 mi South 17.3 mph 23.0 mph N/A   Overcast
3:32 AM 53.6 °F 41.0 °F 62% 30.57 in 10.0 mi South 13.8 mph 24.2 mph N/A   Mostly Cloudy
3:52 AM 51.8 °F 41.0 °F 67% 30.57 in 10.0 mi South 17.3 mph 21.9 mph N/A   Clear
4:12 AM 51.8 °F 41.0 °F 67% 30.57 in 10.0 mi South 17.3 mph - N/A   Clear
4:32 AM 51.8 °F 41.0 °F 67% 30.57 in 10.0 mi South 15.0 mph - N/A   Clear
4:52 AM 51.8 °F 41.0 °F 67% 30.58 in 10.0 mi South 13.8 mph - N/A   Clear
5:12 AM 51.8 °F 37.4 °F 58% 30.58 in 10.0 mi SSW 8.1 mph - N/A   Clear
5:32 AM 53.6 °F 39.2 °F 58% 30.59 in 10.0 mi SW 3.5 mph - N/A   Clear
5:52 AM 51.8 °F 37.4 °F 58% 30.59 in 10.0 mi West 10.4 mph - N/A   Clear
6:12 AM 51.8 °F 37.4 °F 58% 30.59 in 10.0 mi West 12.7 mph 16.1 mph N/A   Scattered Clouds
6:32 AM 50.0 °F 37.4 °F 62% 30.60 in 10.0 mi West 12.7 mph 16.1 mph N/A   Scattered Clouds
6:52 AM 51.8 °F 39.2 °F 62% 30.60 in 10.0 mi WSW 5.8 mph - N/A   Scattered Clouds
7:12 AM 51.8 °F 39.2 °F 62% 30.60 in 10.0 mi WSW 4.6 mph - N/A   Scattered Clouds
7:32 AM 51.8 °F 39.2 °F 62% 30.61 in 10.0 mi WSW 4.6 mph - N/A   Mostly Cloudy
7:52 AM 53.6 °F 39.2 °F 58% 30.62 in 10.0 mi WSW 5.8 mph - N/A   Overcast
8:12 AM 53.6 °F 41.0 °F 62% 30.62 in 10.0 mi SW 3.5 mph - N/A   Mostly Cloudy
8:32 AM 53.6 °F 37.4 °F 54% 30.62 in 10.0 mi West 12.7 mph - N/A   Scattered Clouds
8:52 AM 53.6 °F 37.4 °F 54% 30.64 in 10.0 mi West 13.8 mph - N/A   Clear
9:12 AM 53.6 °F 37.4 °F 54% 30.64 in 10.0 mi West 10.4 mph 24.2 mph N/A   Scattered Clouds
9:32 AM 55.4 °F 37.4 °F 51% 30.64 in 10.0 mi West 17.3 mph - N/A   Scattered Clouds
9:52 AM 55.4 °F 37.4 °F 51% 30.63 in 10.0 mi West 18.4 mph 23.0 mph N/A   Scattered Clouds
10:12 AM 59.0 °F 37.4 °F 45% 30.63 in 10.0 mi West 17.3 mph 24.2 mph N/A   Scattered Clouds
10:32 AM 59.0 °F 37.4 °F 45% 30.64 in 10.0 mi West 12.7 mph 24.2 mph N/A   Scattered Clouds
10:52 AM 59.0 °F 35.6 °F 42% 30.64 in 10.0 mi West 19.6 mph 23.0 mph N/A   Scattered Clouds
11:12 AM 60.8 °F 35.6 °F 39% 30.63 in 10.0 mi WNW 21.9 mph 28.8 mph N/A   Scattered Clouds
11:32 AM 60.8 °F 35.6 °F 39% 30.64 in 10.0 mi West 19.6 mph 26.5 mph N/A   Scattered Clouds
11:52 AM 60.8 °F 35.6 °F 39% 30.64 in 10.0 mi West 21.9 mph 29.9 mph N/A   Mostly Cloudy
12:12 PM 60.8 °F 35.6 °F 39% 30.64 in 10.0 mi WNW 18.4 mph 26.5 mph N/A   Mostly Cloudy
12:32 PM 60.8 °F 35.6 °F 39% 30.65 in 10.0 mi West 11.5 mph 18.4 mph N/A   Overcast
12:52 PM 59.0 °F 33.8 °F 39% 30.65 in 10.0 mi West 15.0 mph 19.6 mph N/A   Overcast
1:12 PM 60.8 °F 33.8 °F 36% 30.64 in 10.0 mi West 17.3 mph 23.0 mph N/A   Mostly Cloudy
1:32 PM 64.4 °F 32.0 °F 30% 30.64 in 10.0 mi WNW 16.1 mph 26.5 mph N/A   Scattered Clouds
1:52 PM 64.4 °F 32.0 °F 30% 30.64 in 10.0 mi West 12.7 mph 26.5 mph N/A   Scattered Clouds
2:12 PM 64.4 °F 32.0 °F 30% 30.63 in 10.0 mi West 18.4 mph 27.6 mph N/A Thunderstorm Scattered Clouds
2:32 PM 62.6 °F 33.8 °F 34% 30.63 in 10.0 mi West 11.5 mph 18.4 mph N/A   Scattered Clouds
2:52 PM 64.4 °F 32.0 °F 30% 30.62 in 10.0 mi West 10.4 mph 19.6 mph N/A   Scattered Clouds
3:12 PM 68.0 °F 32.0 °F 26% 30.62 in 10.0 mi West 12.7 mph 24.2 mph N/A   Scattered Clouds
3:32 PM 64.4 °F 32.0 °F 30% 30.62 in 10.0 mi West 19.6 mph - N/A   Scattered Clouds
3:52 PM 64.4 °F 32.0 °F 30% 30.61 in 10.0 mi WSW 3.5 mph - N/A   Scattered Clouds
4:12 PM 64.4 °F 30.2 °F 28% 30.60 in 10.0 mi WSW 5.8 mph - N/A   Mostly Cloudy
4:32 PM 64.4 °F 28.4 °F 26% 30.59 in 10.0 mi WSW 4.6 mph - N/A   Scattered Clouds
4:52 PM 64.4 °F 32.0 °F 30% 30.59 in 10.0 mi West 5.8 mph - N/A   Mostly Cloudy
5:12 PM 64.4 °F 33.8 °F 32% 30.59 in 10.0 mi ENE 9.2 mph - N/A   Mostly Cloudy
5:32 PM 64.4 °F 37.4 °F 37% 30.59 in 10.0 mi NNW 4.6 mph - N/A   Overcast
5:52 PM 64.4 °F 37.4 °F 37% 30.59 in 10.0 mi North 3.5 mph - N/A   Mostly Cloudy
6:12 PM 64.4 °F 35.6 °F 34% 30.59 in 10.0 mi WNW 5.8 mph - N/A   Mostly Cloudy
6:32 PM 64.4 °F 37.4 °F 37% 30.58 in 10.0 mi NW 4.6 mph - N/A Thunderstorm Overcast
6:52 PM 60.8 °F 35.6 °F 39% 30.59 in 10.0 mi NNE 5.8 mph 17.3 mph N/A   Overcast
7:12 PM 59.0 °F 39.2 °F 48% 30.58 in 10.0 mi ENE 15.0 mph 24.2 mph N/A Thunderstorm Thunderstorm
7:32 PM 59.0 °F 42.8 °F 55% 30.59 in 10.0 mi SSE 15.0 mph - 0.01 in Rain , Thunderstorm Light Thunderstorms and Rain
7:52 PM 53.6 °F 41.0 °F 62% 30.60 in 10.0 mi SSE 8.1 mph 17.3 mph 0.05 in Rain , Thunderstorm Light Thunderstorms and Rain
8:12 PM 53.6 °F 42.8 °F 67% 30.62 in 7.0 mi South 23.0 mph - 0.02 in Rain , Thunderstorm Thunderstorms and Rain
8:32 PM 53.6 °F 44.6 °F 72% 30.62 in 5.0 mi South 19.6 mph - 0.05 in Rain , Thunderstorm Light Thunderstorms and Rain
8:52 PM 53.6 °F 42.8 °F 67% 30.62 in 10.0 mi South 16.1 mph - 0.06 in Thunderstorm Overcast
9:12 PM 53.6 °F 41.0 °F 62% 30.62 in 10.0 mi South 18.4 mph - N/A   Scattered Clouds
9:32 PM 53.6 °F 41.0 °F 62% 30.63 in 10.0 mi South 18.4 mph - N/A Thunderstorm Scattered Clouds
9:52 PM 53.6 °F 41.0 °F 62% 30.64 in 10.0 mi South 16.1 mph - N/A   Scattered Clouds
10:12 PM 53.6 °F 41.0 °F 62% 30.63 in 10.0 mi SSE 13.8 mph - N/A   Scattered Clouds
10:32 PM 53.6 °F 41.0 °F 62% 30.64 in 10.0 mi South 12.7 mph - N/A   Scattered Clouds
10:52 PM 53.6 °F 37.4 °F 54% 30.64 in 10.0 mi South 6.9 mph - N/A   Scattered Clouds
11:12 PM 53.6 °F 37.4 °F 54% 30.64 in 10.0 mi South 6.9 mph - N/A   Scattered Clouds
11:32 PM 53.6 °F 37.4 °F 54% 30.64 in 10.0 mi West 4.6 mph - N/A   Mostly Cloudy
11:52 PM 53.6 °F 37.4 °F 54% 30.64 in 10.0 mi West 5.8 mph - N/A   Overcast